Location: Ravensburg
(47.7866°N, 9.6124°E)
Time: 22:16:22
(UTC+02:00)

AO-85 - Pass Details

Date: 16 March 2026
Orbit: 507 x 686 km, 64.8° (Epoch: 11 April)

Event Time Altitude Azimuth Distance (km) Brightness Sun altitude
Exits shadow 03:39:50 22° 106° (ESE) 1,181 ? -28.5°
Drops below altitude 10° 03:42:30 10° 64° (ENE) 1,757 ? -28.2°
Sets 03:44:58 0° 49° (NE) 2,633 ? -27.8°
